San Luis Valley Regional Bergman Field
KALS : now visible

Airfield :











YOU CAN JOIN US ON...

 
LOGIN :

Register | Disclaimer

   EN    FR    IT 

 









Legend :    VFR   Marginal VFR   IFR   Intensive IFR   Very Intensive IFR
Visi :
Ceiling :
>= 8 km
>= 3000ft
5 to 8 km
1000 to 3000 ft
1500m to 5 km
500 to 1000 ft
800 to 1500m
200 to 500 ft
< 800m
< 200 ft
Symbols :   Thunderstorms  Fog  Heavy snow  Heavy precipitations  Wind > 20 kt







- Airport Elevation : 7539 ft


KALS - San Luis Valley Regional Bergman Field

CURRENT METAR :
  • 191352Z AUTO 06003KT 10SM CLR 16/02 A3025 RMK AO2 SLP135 T01560022

EXPIRED METARs :
  • 191252Z AUTO 00000KT 10SM CLR 10/04 A3024 RMK AO2 SLP137 T01000039
  • 191152Z AUTO 00000KT 10SM CLR 08/02 A3022 RMK AO2 SLP133 T00780017 10139 20072 53006

TAF KALS
Valid from the 19 at 12:00 until the 20 at 12:00 UTC


191120Z 1912/2012 VRB05KT P6SM SKC
FM192100 29010KT P6SM SCT150
FM200400 VRB06KT P6SM SCT150
KZDV FIR / North America



MET'MAP, your aeronautical weather chart ! - Copyright ORBIFLY December 2007 - Disclaimer

ORBIFLY MET'MAP TEAM :

Programming & Development : Alexandra Zaïnal
Concept & Development : Baudouin d'Aumeries
Co-Development & Prog : Marc-Olivier Méhu
Technical & hardware support : Manuel Goepfert

Contact : metmap@orbifly.com




SOURCES & CREDITS :

   NOAA       Earth
Advisory